This demonstration page uses our WeatherBlox Daily Observations layout. Learn more.

Hourly Observations for January 26, 2017

Temp ( °F °C ) Dew Point ( °F °C ) Humidity (%) Winds ( mph kmh ) Pressure ( in mb ) Visibility ( mi km ) Precip ( " mm )
12:54 am 00:54 Cloudy with Light Snow 23 -5 18 -7.8 81 81 NW 14 22 30.1 1019 6 9.65604 0 0.0254
1:54 am 01:54 Cloudy 24 -4.4 18 -7.8 77 77 NW 12 19 30.1 1019 10 16.0934 0 0.0254
2:54 am 02:54 Cloudy 24 -4.4 18 -7.8 77 77 NW 15 24 30.11 1020 10 16.0934 0 0
3:54 am 03:54 Cloudy 24 -4.4 18 -7.8 77 77 NW 16 26 30.13 1020 10 16.0934 0 0
4:54 am 04:54 Cloudy with Light Snow 24 -4.4 18 -7.8 77 77 NW 15 24 30.14 1021 8 12.87472 0 0.0254
5:54 am 05:54 Cloudy 24 -4.4 18 -7.8 77 77 NW 13 20 30.14 1021 10 16.0934 0 0.0254
6:54 am 06:54 Cloudy 24 -4.4 17 -8.3 75 75 NW 15 24 30.17 1022 10 16.0934 0 0
7:54 am 07:54 Cloudy 24 -4.4 17 -8.3 75 75 NW 14 22 30.19 1022 10 16.0934 0 0
8:54 am 08:54 Cloudy 24 -4.4 17 -8.3 75 75 NW 13 20 30.2 1023 10 16.0934 0 0
9:54 am 09:54 Cloudy 25 -3.9 17 -8.3 72 72 NW 17 28 30.21 1023 10 16.0934 0 0
10:54 am 10:54 Cloudy 26 -3.3 17 -8.3 69 69 NW 14 22 30.22 1023 10 16.0934 0 0
11:54 am 11:54 Cloudy 27 -2.8 18 -7.8 69 69 WNW 12 19 30.22 1023 10 16.0934 0 0
12:28 pm 12:28 Cloudy 28 -2.2 19 -7.2 69 69 NW 9 15 30.27 1025 10 16.0934 0 0
12:41 pm 12:41 Cloudy 28 -2.2 19 -7.2 69 69 WNW 13 20 30.24 1024 10 16.0934 0 0
12:54 pm 12:54 Cloudy 28 -2.2 19 -7.2 69 69 WNW 12 19 30.2 1023 10 16.0934 0 0
1:54 pm 13:54 Cloudy 29 -1.7 19 -7.2 66 66 NNW 8 13 30.19 1022 10 16.0934 0 0
2:07 pm 14:07 Mostly Cloudy 31 -0.6 20 -6.7 64 64 W 8 13 30.21 1023 10 16.0934 0 0
2:54 pm 14:54 Mostly Cloudy 31 -0.6 20 -6.7 64 64 WNW 13 20 30.19 1022 10 16.0934 0 0
2:59 pm 14:59 Partly Cloudy 31 -0.6 20 -6.7 64 64 WNW 13 20 30.21 1023 10 16.0934 0 0
3:54 pm 15:54 Partly Cloudy 32 0 21 -6.1 64 64 NW 8 13 30.19 1022 10 16.0934 0 0
4:54 pm 16:54 Sunny 30 -1.1 20 -6.7 66 66 WNW 14 22 30.2 1023 10 16.0934 0 0
5:54 pm 17:54 Clear 28 -2.2 20 -6.7 72 72 WNW 7 11 30.21 1023 10 16.0934 0 0
6:54 pm 18:54 Clear 27 -2.8 19 -7.2 72 72 W 5 7 30.2 1023 10 16.0934 0 0
7:54 pm 19:54 Clear 25 -3.9 19 -7.2 78 78 W 5 7 30.2 1023 10 16.0934 0 0
8:54 pm 20:54 Clear 26 -3.3 18 -7.8 71 71 W 9 15 30.19 1022 10 16.0934 0 0
9:54 pm 21:54 Clear 26 -3.3 17 -8.3 69 69 WNW 12 19 30.18 1022 10 16.0934 0 0
10:54 pm 22:54 Clear 25 -3.9 17 -8.3 72 72 W 10 17 30.18 1022 10 16.0934 0 0
11:41 pm 23:41 Mostly Cloudy 26 -3.3 17 -8.3 69 69 NW 13 20 30.24 1024 10 16.0934 0 0
11:54 pm 23:54 Cloudy 26 -3.3 17 -8.3 69 69 NW 9 15 30.18 1022 10 16.0934 0 0

Powered by AerisWeather